Presure
107 82 82 116 89 92 91 96 92 89 131 93 93 87 92 86 91 145 80 148 141 148 135 151 151 146 143 140 148 147 148 150 105 100 125 155 149 149 156 163 150 153 112 160 152 153 171 166 168
118 96 94 87 90 90 89 118 134 88 89 96 122 114 140 121 91 90 86 99 123 144 148 148 147 145 147 149 111 137 147 147 133 110 114 135 113 109 132 137 156 167 166 156 166 196 172 191 187
119 120 110 93 94 90 90 119 89 105 95 85 88 123 124 130 138 98 141 94 128 106 143 139 141 151 148 156 147 149 151 146 117 147 143 146 151 120 159 163 116 128 138 167 172 148 216 190 208
123 87 137 118 97 97 138 98 179 151 93 86 90 109 139 97 146 149 149 141 103 141 145 157 140 153 144 155 139 151 144 159 144 147 148 158 153 159 165 120 144 159 169 240 232 124 144 107 209
111 87 109 183 175 121 170 170 100 126 84 82 82 96 116 142 125 132 163 119 140 131 146 150 143 141 155 161 139 154 130 94 110 95 97 119 157 178 162 156 163 174 243 179 218 224 203 197 103
89 93 88 127 175 153 169 138 110 94 83 115 90 124 87 109 164 116 126 152 144 144 148 141 129 158 125 122 131 150 133 161 153 167 160 160 169 177 158 154 170 253 245 157 204 208 212 107 169
94 93 94 92 178 110 108 175 197 91 81 93 117 109 103 112 122 150 99 167 132 143 170 155 162 155 150 182 86 107 97 97 136 179 148 155 183 167 175 172 194 243 129 218 219 201 195 178 194
83 87 93 97 89 165 186 92 93 89 189 116 178 125 112 94 109 108 123 109 101 103 153 180 157 131 194 101 95 109 157 153 184 234 186 212 174 169 179 173 252 232 219 220 219 136 114 127 195
189 107 89 101 97 98 124 84 174 116 103 169 90 92 98 90 94 95 96 120 130 141 137 145 136 182 152 151 137 123 155 130 165 187 154 187 168 102 167 260 253 240 216 213 181 188 168 125 190
146 196 127 85 94 96 115 131 99 102 115 115 95 102 101 89 120 90 89 177 181 93 164 188 144 175 197 202 153 198 102 102 166 176 227 185 189 127 109 149 243 235 219 206 208 200 174 188 203
170 173 178 121 103 95 96 106 193 172 115 81 111 79 90 86 95 82 85 171 102 161 128 195 189 191 161 204 203 151 136 111 182 221 190 195 176 122 110 173 236 234 208 202 198 204 188 99 170
71 170 184 141 171 110 117 99 111 109 84 105 90 94 89 79 90 78 80 98 161 197 187 185 183 182 232 230 204 250 251 236 224 177 201 178 169 169 234 252 229 233 155 210 211 211 207 203 173
85 138 189 117 100 117 129 94 102 108 184 94 106 82 90 88 187 80 83 85 91 188 191 195 194 226 217 245 134 221 162 222 191 187 187 182 175 169 230 246 249 237 238 152 220 202 201 207 203
196 101 156 203 181 101 212 88 99 104 149 110 186 87 92 87 154 123 86 87 95 157 175 224 216 227 244 208 234 217 213 184 184 144 169 177 175 162 155 219 252 187 225 226 230 219 215 222 218
195 111 85 160 97 180 203 123 100 103 214 203 116 83 88 113 94 151 87 103 107 103 223 204 150 214 196 182 218 212 206 198 191 192 168 182 172 206 156 216 163 163 236 102 102 109 192 152 138
197 199 124 108 108 178 98 168 80 105 98 118 103 108 91 162 90 137 96 91 116 221 189 78 208 99 242 113 130 203 202 191 189 188 161 182 153 177 174 171 171 157 101 100 90 193 220 164 162
202 197 129 183 152 86 129 90 143 192 120 83 88 104 102 135 105 86 90 96 101 95 216 206 190 227 175 126 160 175 191 192 192 177 168 175 179 167 174 172 128 135 99 97 95 156 159 162 164
217 192 191 166 109 155 83 89 177 86 86 90 90 89 102 121 100 101 90 100 94 101 156 158 204 142 197 121 203 131 189 155 188 183 171 167 186 177 144 118 103 144 105 93 152 167 145 147 160
199 196 192 181 184 77 187 106 83 174 91 91 85 89 150 172 84 91 84 204 122 142 99 230 143 221 126 204 198 189 141 186 146 176 183 172 114 106 124 179 134 104 130 178 180 156 179 166 179
231 92 188 190 184 182 192 157 107 109 197 87 122 122 180 93 97 105 101 92 191 189 174 223 217 219 208 155 177 124 188 97 142 131 120 175 172 169 167 164 172 169 173 172 172 145 158 175 169
232 198 191 184 179 186 189 205 202 150 199 197 202 202 199 198 107 121 191 189 188 91 192 89 197 184 215 109 197 116 108 141 119 162 149 130 177 165 171 164 165 160 138 152 166 169 144 158 171
214 87 181 176 178 188 188 208 205 198 197 178 177 194 196 167 189 189 177 196 178 195 196 176 201 178 185 188 211 142 184 189 182 186 179 125 134 170 172 136 173 165 160 152 152 132 156 132 162
209 199 187 184 177 185 193 214 206 195 203 176 197 192 164 190 190 172 196 181 198 184 179 196 193 216 208 105 119 123 203 205 191 182 182 188 173 151 177 176 122 169 165 173 173 173 174 146 154
207 203 196 189 177 184 195 206 208 195 194 199 195 196 188 187 189 194 189 154 178 182 173 161 177 200 199 169 129 203 209 205 198 198 183 187 183 172 178 177 178 144 167 196 197 150 133 193 165
209 203 196 183 175 180 202 215 203 196 191 195 192 187 181 187 179 172 177 184 182 172 186 190 181 187 109 167 190 194 193 195 201 199 198 153 194 194 194 198 192 187 188 159 135 168 191 185 204
117 197 183 173 172 196 200 201 212 193 193 188 188 186 167 185 178 101 173 100 171 181 168 181 169 181 192 188 190 192 192 192 188 188 186 186 187 192 195 197 200 196 193 193 191 181 200 229 227
199 184 171 172 171 197 206 202 190 188 189 186 182 186 181 181 205 177 174 182 174 169 163 186 180 158 169 183 189 186 186 187 191 192 192 191 182 190 192 192 190 182 210 180 199 213 218 172 230
199 175 152 170 190 196 202 192 197 186 185 184 181 185 183 195 187 173 190 172 140 169 172 168 178 170 182 167 178 190 188 174 183 185 176 178 189 188 167 153 166 181 189 183 97 230 224 214 191
87 81 172 169 192 193 197 198 189 188 188 186 179 118 156 177 182 169 195 95 149 177 164 167 174 168 173 173 166 168 176 178 177 170 174 169 136 163 191 192 168 204 235 232 222 178 222 214 220
185 164 180 180 172 192 89 189 181 180 185 177 179 171 175 186 107 90 194 195 173 185 184 195 202 180 174 177 174 188 171 183 187 128 142 193 194 181 144 208 222 235 237 217 220 216 219 227 242
Wind_Speed
42 20 18 39 14 18 19 20 18 12 33 9 8 8 8 5 6 33 6 38 32 36 30 36 37 37 34 34 38 38 40 40 22 20 27 45 44 44 46 50 46 49 27 56 50 53 63 60 60
50 34 32 24 20 18 18 31 39 13 13 11 33 19 36 27 10 8 9 11 24 34 37 37 37 37 38 39 21 35 40 40 34 25 26 36 27 28 39 41 49 53 52 52 58 56 61 58 60
46 47 45 30 28 22 20 31 17 23 16 14 11 19 27 29 35 15 38 13 29 18 38 34 35 41 39 42 40 42 43 41 25 42 41 43 46 28 51 52 33 37 39 54 39 37 50 46 50
54 27 57 44 33 32 48 20 68 50 20 15 11 24 37 20 43 45 46 34 17 38 40 48 34 44 36 46 35 42 39 48 42 44 46 53 49 51 53 33 43 52 56 42 41 39 42 33 45
45 29 46 74 69 44 60 68 23 40 20 15 13 15 22 40 23 30 55 26 40 30 44 47 37 34 47 49 39 46 33 19 26 21 22 31 51 56 51 50 54 56 42 44 40 36 40 44 30
35 34 32 51 68 56 61 51 35 27 21 34 22 28 13 22 61 29 27 47 42 46 48 33 29 50 34 33 36 45 35 51 47 52 49 49 52 52 49 48 54 37 38 44 34 39 38 32 40
41 37 37 36 72 42 39 66 64 27 19 20 21 20 22 22 25 43 16 55 38 40 57 51 53 49 46 60 21 26 25 26 41 54 47 47 52 50 52 52 53 35 38 36 35 37 39 42 44
30 35 38 42 33 70 75 29 25 26 73 32 78 26 25 16 23 19 35 22 19 23 50 61 50 31 63 27 27 29 48 45 55 49 50 51 50 50 50 49 34 34 36 37 36 41 37 45 44
65 60 39 43 38 35 50 26 66 38 30 67 23 21 21 18 14 16 18 32 37 40 38 43 31 60 46 45 42 36 45 36 46 48 46 49 48 31 48 34 34 32 35 32 39 40 45 46 43
57 66 56 31 40 40 47 55 34 32 36 38 23 25 28 19 35 15 17 66 67 24 51 63 37 55 60 61 47 54 36 35 45 46 39 46 46 36 32 33 33 31 33 36 41 42 49 51 52
70 63 72 57 50 39 38 41 88 65 37 21 35 17 24 20 23 16 18 61 27 51 38 60 60 57 48 61 50 44 40 38 41 35 44 43 42 36 36 36 33 32 36 41 40 44 40 35 48
21 72 75 63 61 57 53 38 44 40 27 39 30 27 25 17 22 15 18 21 57 61 62 57 55 53 55 53 49 38 34 37 35 43 40 41 42 43 34 35 33 35 43 39 45 49 53 51 47
42 56 75 53 52 56 49 35 40 41 68 38 44 27 33 27 56 22 25 27 25 60 60 62 59 55 55 43 41 38 44 36 41 43 39 40 41 42 34 33 39 37 42 36 49 44 45 49 47
83 49 63 74 61 50 67 32 38 44 62 50 75 34 35 27 50 40 27 28 27 45 51 58 55 51 45 40 37 36 36 43 43 45 41 41 42 45 45 37 39 38 39 43 53 53 54 58 54
87 61 41 60 42 63 68 58 38 53 69 80 41 22 29 39 31 48 31 31 32 35 52 51 39 44 41 42 36 38 38 41 43 40 43 41 43 41 47 38 44 43 46 37 40 44 45 48 51
91 86 64 65 61 66 45 42 31 29 42 39 38 43 34 60 29 42 32 29 42 49 49 21 44 30 32 36 39 38 38 44 42 40 47 41 49 42 43 43 42 41 38 40 43 42 52 49 51
94 80 41 60 66 35 45 37 44 50 43 30 33 43 43 44 43 27 33 37 40 30 43 42 41 40 36 37 46 39 43 44 44 43 47 45 44 48 44 44 41 44 41 43 46 53 54 53 53
94 81 69 56 31 64 22 42 46 32 33 34 35 34 45 47 41 45 31 43 31 35 41 43 40 44 36 39 39 41 46 45 46 45 48 50 43 47 51 41 43 49 46 47 58 54 55 60 59
86 87 70 67 65 28 62 33 22 51 41 39 32 35 53 48 28 31 29 43 50 36 35 33 47 35 41 39 43 46 44 50 49 49 49 51 40 44 44 49 53 48 54 51 52 62 57 61 58
94 25 72 71 65 62 62 52 50 42 54 37 47 46 46 44 52 54 52 34 43 39 37 34 35 32 40 42 46 42 51 36 44 47 44 53 54 54 55 57 55 57 56 57 58 58 66 61 64
96 89 78 65 61 65 64 56 57 53 50 49 48 46 45 43 57 52 40 41 38 30 42 33 35 35 33 44 48 42 43 47 47 53 57 51 57 57 59 62 62 64 59 61 64 65 65 66 71
92 29 69 60 59 66 61 56 53 54 49 46 42 45 44 44 44 39 43 37 38 41 40 41 37 41 39 44 40 49 54 57 59 60 58 56 58 64 64 59 67 68 69 69 69 56 74 61 74
94 89 72 62 58 60 58 57 57 53 51 45 45 45 46 41 41 43 37 39 39 39 42 41 43 30 36 34 52 51 51 51 61 62 63 65 65 64 69 70 60 72 73 74 77 78 78 67 76
92 88 75 60 57 59 61 58 54 52 48 45 47 46 42 41 41 38 38 42 40 43 43 36 44 35 36 44 53 43 44 49 58 59 66 67 69 68 71 73 75 67 73 73 73 71 65 79 72
92 84 63 57 55 59 55 58 46 51 52 46 46 44 43 41 40 42 42 43 43 43 47 44 47 46 41 49 48 48 51 53 54 58 60 56 65 68 70 68 72 76 77 66 63 75 84 78 85
30 65 48 51 52 59 57 53 46 53 51 46 44 45 46 43 42 30 43 34 43 47 46 52 47 50 50 51 52 54 56 57 60 63 66 68 68 70 72 74 73 77 78 80 83 82 88 89 89
70 56 52 53 54 58 60 53 48 50 47 45 46 47 45 44 43 42 49 50 47 48 48 49 53 45 49 55 55 57 60 62 63 65 67 69 69 72 74 76 78 78 81 83 87 83 85 84 92
70 54 46 54 59 56 56 46 45 46 47 46 46 46 44 42 43 42 53 48 42 53 54 53 56 53 58 51 56 60 61 61 66 68 68 72 74 78 71 70 75 84 88 90 56 87 87 88 90
20 19 50 46 55 52 52 48 45 44 47 48 43 32 40 44 48 42 48 40 50 57 53 57 60 56 59 59 55 59 68 70 71 70 74 75 56 71 84 84 77 89 87 88 85 78 91 94 97
61 49 52 51 42 53 32 48 45 42 45 44 46 42 44 44 38 40 47 51 57 57 59 56 56 55 64 70 69 74 68 73 75 54 57 80 82 86 63 90 91 87 88 85 88 92 95 98 99
Wind_Direction
215 243 238 245 236 208 226 205 210 222 234 217 230 221 236 225 268 259 214 251 253 252 267 256 259 262 268 271 270 271 271 272 297 300 275 274 277 277 278 276 281 281 292 279 281 281 276 278 277
219 228 229 243 245 225 224 233 236 224 232 233 246 246 244 246 253 252 253 282 265 259 258 259 261 265 266 268 281 275 275 276 274 281 281 279 279 287 290 285 283 281 277 280 278 272 277 273 274
221 215 217 241 240 234 226 221 219 226 221 225 234 231 245 248 252 252 257 264 263 273 263 266 268 262 264 266 268 268 271 273 286 276 279 279 278 283 281 282 284 284 284 282 275 281 268 271 271
220 237 232 221 240 241 234 223 228 232 212 228 243 248 249 272 252 249 254 255 279 263 265 263 269 266 269 266 271 268 269 271 274 275 277 280 281 283 282 286 284 286 287 262 264 283 280 293 272
223 241 223 241 239 225 232 237 221 237 228 237 243 244 245 251 254 259 258 269 259 266 264 264 268 271 269 269 274 274 276 295 285 294 295 291 283 283 285 286 286 287 262 279 262 258 266 271 291
233 236 240 232 238 231 232 233 222 220 225 242 244 241 250 253 258 258 257 254 257 261 262 267 270 269 282 277 274 271 277 276 276 281 277 280 283 283 284 286 286 258 256 283 258 264 265 283 279
230 231 236 239 241 230 235 237 240 210 228 240 248 239 248 248 252 253 278 261 257 265 270 265 265 267 269 279 302 285 294 292 280 280 279 281 281 283 284 284 289 260 282 258 251 260 267 271 272
229 232 232 239 240 243 240 219 207 219 243 230 239 241 239 235 253 264 264 278 285 284 263 275 266 260 281 283 292 289 275 274 280 283 281 279 280 283 283 286 262 258 258 248 259 277 291 283 274
233 220 231 228 241 240 225 223 238 235 244 236 229 230 231 246 248 264 277 275 274 263 274 266 261 282 271 275 284 290 279 288 275 279 278 277 280 287 282 263 256 253 260 255 270 270 276 286 274
227 233 227 233 237 241 232 238 239 236 242 225 239 237 245 250 258 264 278 265 270 297 273 278 269 278 286 288 289 283 287 292 275 279 279 277 279 286 294 289 261 251 249 262 254 264 269 268 267
228 225 229 224 230 235 240 240 243 238 238 242 237 249 241 259 256 270 284 265 280 269 284 278 280 284 276 289 288 275 281 285 276 272 273 276 281 287 293 286 262 249 266 250 268 264 270 289 278
248 225 233 224 232 230 231 240 236 235 244 235 236 236 243 265 258 271 286 286 270 274 274 277 280 280 286 288 284 275 275 274 270 275 273 278 279 281 275 259 265 254 277 261 256 257 262 267 273
236 229 233 227 229 227 234 234 243 236 243 239 237 245 245 256 263 274 279 283 290 272 278 284 284 286 286 283 275 274 274 273 271 276 277 279 279 279 277 263 251 259 253 273 252 271 273 274 276
228 226 229 234 226 229 234 229 240 240 244 239 248 238 245 257 258 262 272 280 280 269 279 284 285 286 283 276 278 275 271 274 275 280 277 276 277 277 281 278 256 272 263 261 253 260 267 269 273
227 223 233 226 234 232 236 232 232 240 240 240 242 251 254 253 261 262 265 279 276 293 279 282 277 285 274 273 273 270 267 268 272 273 277 276 277 288 278 281 276 276 257 287 293 289 281 283 288
225 226 224 227 225 233 226 230 239 234 238 241 237 243 256 255 260 264 271 265 283 275 276 294 279 296 266 297 290 269 267 269 272 272 275 277 280 277 275 276 276 279 288 290 295 280 274 279 281
222 224 221 221 227 232 235 231 237 231 240 239 246 246 251 253 257 264 268 276 283 284 279 279 278 278 275 281 274 271 266 267 270 269 273 276 275 276 273 273 284 279 288 290 295 283 283 282 280
213 222 221 223 227 229 231 238 230 242 243 246 248 253 252 262 265 269 273 282 270 277 284 270 276 274 272 279 259 282 268 279 267 268 272 274 279 279 288 285 284 290 294 296 289 281 297 295 287
209 217 215 217 223 233 234 237 237 233 247 250 249 257 253 246 252 267 259 266 276 280 286 271 267 271 288 264 260 264 282 272 284 273 270 272 286 284 296 277 299 293 299 281 283 288 283 291 284
202 213 214 217 220 228 232 232 233 244 229 252 249 252 247 263 268 263 270 273 270 281 284 271 274 267 270 274 267 284 269 298 281 284 287 275 274 275 276 280 279 280 282 282 281 292 286 285 285
199 210 213 212 217 227 230 225 220 233 225 232 235 238 243 247 256 264 262 267 272 277 287 285 276 273 267 290 265 286 290 281 287 276 283 285 279 282 278 280 282 285 289 288 285 286 297 286 286
197 229 212 208 216 225 229 225 220 226 226 230 233 238 242 247 254 259 261 264 278 279 284 280 279 281 277 275 269 281 271 271 274 275 278 289 289 283 284 289 284 285 287 290 292 296 290 291 289
197 207 208 207 215 225 226 218 218 223 227 234 232 236 243 246 254 259 256 271 269 277 283 279 283 278 274 290 287 290 274 274 277 280 281 279 283 285 285 286 293 286 286 287 286 287 288 299 295
199 204 207 205 214 223 223 219 213 220 227 225 232 235 239 246 252 257 259 269 274 278 282 278 286 279 278 281 287 280 281 279 277 277 279 281 282 285 285 286 287 292 289 288 288 296 293 287 293
198 202 203 205 214 225 221 217 209 215 225 224 230 237 242 248 255 252 263 267 274 278 279 278 284 283 287 281 283 279 279 280 283 281 282 290 283 284 285 287 285 287 287 290 291 290 289 294 289
202 201 198 208 217 218 220 219 204 215 222 225 230 239 245 249 252 255 266 268 273 274 280 278 283 287 283 285 283 282 282 282 284 284 284 286 287 287 287 288 288 288 288 288 290 291 291 296 295
199 190 197 210 217 215 216 216 208 219 224 227 232 236 244 249 241 258 258 265 272 275 280 274 282 282 291 288 283 287 287 287 285 285 286 288 290 291 290 290 289 290 293 292 292 298 297 294 296
194 189 209 213 216 216 218 219 212 221 228 232 237 240 247 243 248 263 253 267 279 274 276 284 280 290 285 291 292 286 290 296 291 289 294 294 291 291 290 291 298 296 293 294 297 298 297 296 294
211 212 207 218 214 218 219 219 219 218 228 235 244 246 250 253 257 264 255 273 270 269 282 279 285 290 289 291 295 297 295 294 292 294 295 294 288 295 293 294 300 296 300 300 299 297 299 296 297
194 200 205 211 223 217 250 219 225 222 228 241 244 255 257 257 255 260 255 256 269 265 269 270 280 284 288 288 292 284 296 291 290 291 289 291 292 294 291 300 302 300 300 299 300 298 298 299 298